Location: Batesville
(34.7480°N, 83.6110°W)
Time: 15:43:32
(UTC-05:00)

Envisat - Visible Passes

Search period start: 20 January 2018 00:00
Search period end: 30 January 2018 00:00
Orbit: 764 x 766 km, 98.2° (Epoch: 20 January)

Date Brightness Start Highest point End Pass type
(mag) Time Alt. Az. Time Alt. Az. Time Alt. Az.
20 Jan 5.5 20:28:45 11° NNW 20:28:45 11° NNW 20:28:52 10° NNW visible
21 Jan 5.1 19:51:21 13° N 19:51:21 13° N 19:51:57 10° N visible
22 Jan 5.0 19:13:56 11° NNE 19:13:56 11° NNE 19:14:17 10° NNE visible
22 Jan 5.7 20:54:08 10° NNW 20:54:08 10° NNW 20:54:12 10° NNW visible
23 Jan 5.1 20:16:42 16° N 20:16:42 16° N 20:17:44 10° N visible
24 Jan 4.7 19:39:16 17° NNE 19:39:16 17° NNE 19:40:38 10° N visible
25 Jan 4.9 19:01:50 12° NE 19:01:50 12° NE 19:02:35 10° NNE visible
25 Jan 5.2 20:42:01 17° NNW 20:42:01 17° NNW 20:43:13 10° NNW visible
26 Jan 4.5 20:04:35 24° N 20:04:35 24° N 20:06:34 10° N visible
27 Jan 4.4 19:27:07 20° NNE 19:27:07 20° NNE 19:29:15 10° NNE visible
27 Jan 5.5 21:07:18 15° NW 21:07:18 15° NW 21:08:19 10° NW visible
28 Jan 4.8 18:49:39 11° NE 18:49:39 11° NE 18:50:32 10° NE visible
28 Jan 4.5 20:29:51 27° NNW 20:29:51 27° NNW 20:32:10 10° NNW visible
29 Jan 3.9 19:52:23 32° NNE 19:52:23 32° NNE 19:55:20 10° N visible
29 Jan 5.9 21:32:33 11° WNW 21:32:33 11° WNW 21:32:44 10° NW visible
